Dauntless Aviation
Airports North America Mexico
MX84

Purépecha Airport

Pátzcuaro, MEXICO

Airport Info
Suggest Updated Information for this Airport

Location

Latitude / Longitude: 19°32'44"N / 101°34'31"W
  19°32.742'N / 101°34.518'W
  19.5457 / -101.5753
Satellite photo at:
Airport distance calculator
From:
Weather Reports

METAR

MMMM
36.5nm NE
MMMM 190640Z 23004KT 7SM SKC 11/02 A3020

TAF

MMPN
26.8nm SW
TAF MMPN 190418Z 1906/2006 00000KT P6SM SKC FM191800 22012KT P6SM SCT030 BECMG 2002/2004 20004KT SKC
MMMM
36.5nm NE
TAF MMMM 190410Z 1906/2012 00000KT P6SM SKC FM191800 18012KT P6SM SCT250 FM200600 00000KT P6SM SKC
Safelog

 

Dauntless Aviation

© 2007-2019 Dauntless Aviation, all rights reserved
Information provided via PilotNav comes from a variety of official and unofficial data sources. As errors are possible, do not use PilotNav for primary flight planning purposes. Verify any information that you receive via PilotNav with current and canonical charts and other official documents. The material in this database is subject to database copyrights held by Dauntless Aviation and may not be copied without the express permission of Dauntless Aviation - licenses for use of part of all of this data are available for purchase; enquire via the Dauntless Aviation helpdesk. A number of mechanisms and markers exist in the database to protect against and identify infringement / copyright. Automated queries against this website are stictly prohibited, and all activity is logged and analyzed.